Weather History for St. George, UT

Change the Weather History Date:

Tuesday, January 29, 2013

  Actual Average Record
Temperature  
Mean Temperature 36 °F -  
Max Temperature 46 °F 57 °F 72 °F (1931)
Min Temperature 26 °F 29 °F 10 °F (1937)
Degree Days  
Heating Degree Days 29    
Moisture  
Dew Point 21 °F    
Average Humidity 57    
Maximum Humidity 80    
Minimum Humidity 34    
Precipitation  
Precipitation 0.00 in - - ()
Sea Level Pressure  
Sea Level Pressure 30.10 in    
Wind  
Wind Speed 3 mph (South)    
Max Wind Speed 17 mph    
Max Gust Speed 23 mph    
Visibility 10 miles    
Events      
Averages and records for this station are not official NWS values.
T = Trace of Precipitation, MM = Missing Value Source: NWS Daily Summary

Daily Weather History Graph

Daily Weather History Graph

Search for Another Location

Airport:

Trip Planner

Search our weather history database for the weather conditions in past years. The results will help you decide how hot, cold, wet, or windy it might be!

Date:

Astronomy

Jan. 29, 2013 Rise Set
Actual Time 7:39 AM MST 5:56 PM MST
Civil Twilight 7:11 AM MST 6:23 PM MST
Nautical Twilight 6:40 AM MST 6:55 PM MST
Astronomical Twilight 6:09 AM MST 7:25 PM MST
Moon 8:51 PM MST 8:43 AM MST
Length of Visible Light 11h 12m
Length of Day
10h 17m
Waning Gibbous, 93% of the Moon is Illuminated
Jan 29
Waning Gibbous
Feb 3
Last Quarter
Feb 10
New
Feb 17
First Quarter
Feb 25
Full

Hourly Weather History & Observations

Time (MST) Temp. Windchill Dew Point Humidity Pressure Visibility Wind Dir Wind Speed Gust Speed Precip Events Conditions
12:15 AM 32.0 °F - 17.6 °F 55% 30.07 in 10.0 mi Calm Calm - N/A   Clear
12:35 AM 30.2 °F - 19.4 °F 64% 30.07 in 10.0 mi Calm Calm - N/A   Clear
12:55 AM 30.2 °F 25.4 °F 17.6 °F 60% 30.07 in 10.0 mi SSE 4.6 mph - N/A   Clear
1:15 AM 30.2 °F 24.3 °F 19.4 °F 64% 30.06 in 10.0 mi South 5.8 mph - N/A   Clear
1:35 AM 28.4 °F 24.6 °F 21.2 °F 74% 30.07 in 10.0 mi West 3.5 mph - N/A   Clear
1:55 AM 30.2 °F - 17.6 °F 60% 30.06 in 10.0 mi Calm Calm - N/A   Clear
2:15 AM 28.4 °F - 19.4 °F 69% 30.06 in 10.0 mi Calm Calm - N/A   Clear
2:35 AM 28.4 °F 24.6 °F 19.4 °F 69% 30.07 in 10.0 mi South 3.5 mph - N/A   Clear
2:55 AM 30.2 °F - 17.6 °F 60% 30.07 in 10.0 mi Calm Calm - N/A   Clear
3:35 AM 28.4 °F - 19.4 °F 69% 30.06 in 10.0 mi Calm Calm - N/A   Clear
3:55 AM 28.4 °F - 19.4 °F 69% 30.06 in 10.0 mi Calm Calm - N/A   Clear
4:15 AM 28.4 °F 24.6 °F 17.6 °F 64% 30.06 in 10.0 mi North 3.5 mph - N/A   Clear
4:35 AM 28.4 °F - 17.6 °F 64% 30.05 in 10.0 mi Calm Calm - N/A   Clear
4:55 AM 28.4 °F - 17.6 °F 64% 30.06 in 10.0 mi Calm Calm - N/A   Clear
5:15 AM 28.4 °F - 17.6 °F 64% 30.05 in 10.0 mi Calm Calm - N/A   Clear
5:35 AM 26.6 °F - 17.6 °F 69% 30.05 in 10.0 mi Calm Calm - N/A   Clear
5:55 AM 28.4 °F - 17.6 °F 64% 30.05 in 10.0 mi Calm Calm - N/A   Clear
6:15 AM 26.6 °F - 19.4 °F 74% 30.06 in 10.0 mi Calm Calm - N/A   Clear
6:35 AM 26.6 °F - 19.4 °F 74% 30.06 in 10.0 mi Calm Calm - N/A   Clear
6:55 AM 26.6 °F - 19.4 °F 74% 30.06 in 10.0 mi Calm Calm - N/A   Clear
7:15 AM 26.6 °F - 19.4 °F 74% 30.07 in 10.0 mi Calm Calm - N/A   Clear
7:35 AM 26.6 °F - 19.4 °F 74% 30.07 in 10.0 mi Calm Calm - N/A   Clear
8:15 AM 26.6 °F - 19.4 °F 74% 30.08 in 10.0 mi Calm Calm - N/A   Clear
8:35 AM 26.6 °F - 21.2 °F 80% 30.08 in 10.0 mi Calm Calm - N/A   Clear
8:55 AM 28.4 °F - 19.4 °F 69% 30.08 in 10.0 mi Calm Calm - N/A   Clear
9:15 AM 28.4 °F - 19.4 °F 69% 30.09 in 10.0 mi Calm Calm - N/A   Clear
9:35 AM 30.2 °F - 21.2 °F 69% 30.09 in 10.0 mi Calm Calm - N/A   Clear
9:55 AM 30.2 °F - 19.4 °F 64% 30.09 in 10.0 mi Calm Calm - N/A   Clear
10:15 AM 33.8 °F - 19.4 °F 56% 30.09 in 10.0 mi Calm Calm - N/A   Clear
10:35 AM 32.0 °F - 19.4 °F 60% 30.10 in 10.0 mi Calm Calm - N/A   Clear
10:55 AM 35.6 °F - 19.4 °F 52% 30.09 in 10.0 mi Calm Calm - N/A   Clear
11:15 AM 35.6 °F - 17.6 °F 48% 30.09 in 10.0 mi Calm Calm - N/A   Clear
11:35 AM 35.6 °F - 19.4 °F 52% 30.09 in 10.0 mi Calm Calm - N/A   Clear
11:55 AM 37.4 °F 34.9 °F 21.2 °F 52% 30.09 in 10.0 mi South 3.5 mph - N/A   Partly Cloudy
12:15 PM 39.2 °F 34.2 °F 21.2 °F 49% 30.08 in 10.0 mi WSW 6.9 mph - N/A   Partly Cloudy
12:35 PM 39.2 °F 34.2 °F 21.2 °F 49% 30.06 in 10.0 mi SW 6.9 mph - N/A   Clear
12:55 PM 42.8 °F 37.5 °F 19.4 °F 39% 30.05 in 10.0 mi WSW 9.2 mph - N/A   Partly Cloudy
1:15 PM 44.6 °F 39.2 °F 19.4 °F 37% 30.05 in 10.0 mi SW 10.4 mph 17.3 mph N/A   Mostly Cloudy
1:35 PM 44.6 °F 38.4 °F 21.2 °F 39% 30.05 in 10.0 mi SW 12.7 mph 18.4 mph N/A   Overcast
1:55 PM 44.6 °F 38.4 °F 19.4 °F 37% 30.04 in 10.0 mi SSW 12.7 mph 18.4 mph N/A   Overcast
2:15 PM 46.4 °F 40.1 °F 19.4 °F 34% 30.03 in 10.0 mi SW 15.0 mph 23.0 mph N/A   Overcast
2:35 PM 46.4 °F 39.5 °F 21.2 °F 37% 30.03 in 10.0 mi SW 17.3 mph - N/A   Overcast
2:55 PM 46.4 °F 39.5 °F 21.2 °F 37% 30.03 in 10.0 mi SW 17.3 mph - N/A   Overcast
3:15 PM 46.4 °F 42.4 °F 21.2 °F 37% 30.03 in 10.0 mi WNW 8.1 mph - N/A   Overcast
3:55 PM 46.4 °F - 21.2 °F 37% 30.04 in 10.0 mi Calm Calm - N/A   Overcast
4:15 PM 46.4 °F 40.7 °F 26.6 °F 46% 30.06 in 10.0 mi NE 12.7 mph 17.3 mph N/A   Overcast
4:35 PM 44.6 °F 39.2 °F 23.0 °F 43% 30.07 in 10.0 mi NE 10.4 mph - N/A   Overcast
4:55 PM 44.6 °F 39.2 °F 24.8 °F 46% 30.07 in 10.0 mi NNE 10.4 mph - N/A   Overcast
5:15 PM 42.8 °F 39.3 °F 24.8 °F 49% 30.09 in 10.0 mi NE 5.8 mph - N/A   Overcast
5:35 PM 42.8 °F 40.1 °F 24.8 °F 49% 30.08 in 10.0 mi East 4.6 mph - N/A   Mostly Cloudy
5:55 PM 42.8 °F 40.1 °F 24.8 °F 49% 30.10 in 10.0 mi SE 4.6 mph - N/A   Scattered Clouds
6:15 PM 41.0 °F 36.4 °F 26.6 °F 57% 30.11 in 10.0 mi South 6.9 mph - N/A   Clear
6:55 PM 37.4 °F 32.8 °F 26.6 °F 65% 30.13 in 10.0 mi ESE 5.8 mph - N/A   Clear
7:15 PM 37.4 °F 31.4 °F 26.6 °F 65% 30.14 in 10.0 mi SE 8.1 mph - N/A   Clear
7:35 PM 41.0 °F - 24.8 °F 53% 30.17 in 10.0 mi Calm Calm - N/A   Clear
7:55 PM 42.8 °F 41.1 °F 23.0 °F 46% 30.18 in 10.0 mi NNW 3.5 mph - N/A   Clear
8:15 PM 41.0 °F 37.1 °F 23.0 °F 49% 30.19 in 10.0 mi NNE 5.8 mph - N/A   Clear
8:35 PM 41.0 °F 36.4 °F 23.0 °F 49% 30.20 in 10.0 mi East 6.9 mph - N/A   Clear
8:55 PM 39.2 °F 33.6 °F 23.0 °F 52% 30.21 in 10.0 mi ESE 8.1 mph - N/A   Clear
9:15 PM 41.0 °F 39.0 °F 23.0 °F 49% 30.22 in 10.0 mi SW 3.5 mph - N/A   Clear
9:35 PM 39.2 °F 35.0 °F 23.0 °F 52% 30.23 in 10.0 mi WSW 5.8 mph - N/A   Scattered Clouds
9:55 PM 39.2 °F 34.2 °F 24.8 °F 56% 30.23 in 10.0 mi SW 6.9 mph - N/A   Scattered Clouds
10:15 PM 37.4 °F 33.8 °F 24.8 °F 60% 30.25 in 10.0 mi SSW 4.6 mph - N/A   Mostly Cloudy
10:35 PM 37.4 °F 32.1 °F 24.8 °F 60% 30.25 in 10.0 mi South 6.9 mph - N/A   Mostly Cloudy
10:55 PM 35.6 °F 29.2 °F 24.8 °F 65% 30.26 in 10.0 mi SE 8.1 mph - N/A   Partly Cloudy
11:35 PM 35.6 °F 29.2 °F 24.8 °F 65% 30.28 in 10.0 mi SE 8.1 mph - N/A   Partly Cloudy
11:55 PM 35.6 °F 28.6 °F 24.8 °F 65% 30.28 in 10.0 mi SSE 9.2 mph - N/A   Clear